Weather History for PASC - June, 2012

Change the Weather History Date:

Wednesday, June 6, 2012

  Actual Average Record
Temperature  
Mean Temperature 32 °F -  
Max Temperature 35 °F - - ()
Min Temperature 30 °F - - ()
Degree Days  
Heating Degree Days 33    
Moisture  
Dew Point 32 °F    
Average Humidity 95    
Maximum Humidity 100    
Minimum Humidity 92    
Precipitation  
Precipitation 0.00 in - - ()
Sea Level Pressure  
Sea Level Pressure 30.20 in    
Wind  
Wind Speed 19 mph (ENE)    
Max Wind Speed 25 mph    
Max Gust Speed 32 mph    
Visibility 5 miles    
Events Snow    
T = Trace of Precipitation, MM = Missing Value Source: NWS Daily Summary

Daily Weather History Graph

Daily Weather History Graph

Search for Another Location

Airport or City:

Trip Planner

Search our weather history database for the weather conditions in past years. The results will help you decide how hot, cold, wet, or windy it might be!

Date:

Astronomy

Dec. 31, 1969 Rise Set
Actual Time Sun does not rise Sun does not rise
Civil Twilight Sun does not rise Sun does not rise
Nautical Twilight Sun does not rise Sun does not rise
Astronomical Twilight Sun does not rise Sun does not rise
Moon 3:16 AM AKDT (6/6) 4:40 AM AKDT (6/6)
Length of Visible Light 24h 00m
Length of Day
24h 00m
Waning Gibbous, 92% of the Moon is Illuminated
Jun 6
Waning Gibbous
Jun 11
Last Quarter
Jun 19
New
Jun 26
First Quarter
Jul 3
Full

Hourly Weather History & Observations

Time (AKDT) Temp. Windchill Dew Point Humidity Pressure Visibility Wind Dir Wind Speed Gust Speed Precip Events Conditions
12:53 AM 32.0 °F 18.6 °F 30.0 °F 92% 30.17 in 10.0 mi East 25.3 mph - N/A   Overcast
1:53 AM 32.0 °F 18.9 °F 30.0 °F 92% 30.18 in 10.0 mi East 24.2 mph 32.2 mph N/A   Overcast
2:53 AM 30.9 °F 18.4 °F 30.0 °F 96% 30.18 in 6.0 mi East 20.7 mph 28.8 mph N/A   Overcast
3:53 AM 30.9 °F 18.4 °F 30.0 °F 96% 30.19 in 4.0 mi East 20.7 mph 27.6 mph N/A   Overcast
4:53 AM 30.9 °F 18.1 °F 30.0 °F 96% 30.19 in 5.0 mi ENE 21.9 mph - N/A   Overcast
5:25 AM 30.2 °F 17.8 °F 30.2 °F 100% 30.20 in 2.0 mi ENE 19.6 mph - N/A   Overcast
5:35 AM 30.2 °F 18.9 °F 30.2 °F 100% 30.19 in 1.5 mi ENE 16.1 mph - 0.00 in Snow Light Snow
5:53 AM 30.9 °F 19.1 °F 30.0 °F 96% 30.20 in 1.0 mi ENE 18.4 mph 26.5 mph 0.00 in Snow Light Snow
6:53 AM 32.0 °F 20.5 °F 30.9 °F 96% 30.20 in 1.0 mi ENE 18.4 mph - 0.00 in Snow Light Snow
7:06 AM 32.0 °F 21.6 °F 30.2 °F 93% 30.19 in 1.0 mi ENE 15.0 mph - 0.00 in Snow Light Snow
7:13 AM 32.0 °F 21.2 °F 30.2 °F 93% 30.19 in 1.0 mi ENE 16.1 mph - 0.00 in Snow Light Snow
7:23 AM 32.0 °F 20.8 °F 30.2 °F 93% 30.19 in 2.0 mi ENE 17.3 mph - 0.00 in   Overcast
7:31 AM 32.0 °F 21.2 °F 30.2 °F 93% 30.19 in 3.0 mi ENE 16.1 mph - 0.00 in   Overcast
7:38 AM 32.0 °F 21.6 °F 30.2 °F 93% 30.19 in 1.5 mi ENE 15.0 mph - 0.00 in   Overcast
7:53 AM 32.0 °F 21.6 °F 30.9 °F 96% 30.20 in 2.0 mi ENE 15.0 mph - 0.00 in   Overcast
8:04 AM 32.0 °F 21.2 °F 32.0 °F 100% 30.20 in 4.0 mi East 16.1 mph - N/A   Overcast
8:24 AM 33.8 °F 22.8 °F 32.0 °F 93% 30.19 in 2.0 mi East 18.4 mph 23.0 mph N/A   Overcast
8:53 AM 33.1 °F 23.0 °F 32.0 °F 96% 30.20 in 2.0 mi East 15.0 mph - N/A   Overcast
9:00 AM 33.8 °F 24.3 °F 32.0 °F 93% 30.20 in 5.0 mi East 13.8 mph - N/A   Overcast
9:53 AM 33.1 °F 22.6 °F 33.1 °F 100% 30.20 in 3.0 mi East 16.1 mph - N/A   Overcast
10:53 AM 33.1 °F 22.2 °F 32.0 °F 96% 30.21 in 3.0 mi East 17.3 mph - N/A   Overcast
11:53 AM 34.0 °F 23.8 °F 32.0 °F 92% 30.21 in 6.0 mi East 16.1 mph - N/A   Overcast
12:53 PM 34.0 °F 23.8 °F 32.0 °F 92% 30.21 in 7.0 mi East 16.1 mph - N/A   Overcast
1:53 PM 34.0 °F 24.2 °F 32.0 °F 92% 30.21 in 10.0 mi East 15.0 mph - N/A   Overcast
2:53 PM 34.0 °F 23.8 °F 32.0 °F 92% 30.20 in 10.0 mi ENE 16.1 mph - N/A   Overcast
3:53 PM 34.0 °F 23.0 °F 33.1 °F 96% 30.20 in 10.0 mi East 18.4 mph - N/A   Overcast
4:39 PM 33.8 °F 23.2 °F 32.0 °F 93% 30.20 in 5.0 mi ENE 17.3 mph - N/A   Overcast
4:53 PM 34.0 °F 24.2 °F 32.0 °F 92% 30.21 in 10.0 mi East 15.0 mph - N/A   Overcast
5:12 PM 33.8 °F 22.8 °F 32.0 °F 93% 30.20 in 9.0 mi East 18.4 mph - N/A   Overcast
5:53 PM 34.0 °F 22.7 °F 32.0 °F 92% 30.20 in 9.0 mi East 19.6 mph 25.3 mph N/A   Overcast
6:53 PM 33.1 °F 21.5 °F 32.0 °F 96% 30.20 in 4.0 mi East 19.6 mph - N/A   Overcast
7:11 PM 33.8 °F 23.5 °F 33.8 °F 100% 30.19 in 5.0 mi ENE 16.1 mph - N/A   Overcast
7:53 PM 34.0 °F 23.4 °F 33.1 °F 96% 30.19 in 6.0 mi East 17.3 mph - N/A   Overcast
8:53 PM 34.0 °F 23.0 °F 32.0 °F 92% 30.20 in 3.0 mi East 18.4 mph - N/A   Overcast
9:00 PM 33.8 °F 22.8 °F 32.0 °F 93% 30.20 in 6.0 mi East 18.4 mph 25.3 mph N/A   Overcast
9:53 PM 34.0 °F 23.4 °F 33.1 °F 96% 30.19 in 5.0 mi ENE 17.3 mph - N/A   Overcast
10:53 PM 33.1 °F 22.2 °F 33.1 °F 100% 30.20 in 4.0 mi East 17.3 mph - N/A   Overcast
11:53 PM 34.0 °F 23.4 °F 33.1 °F 96% 30.20 in 5.0 mi ENE 17.3 mph - N/A   Overcast